QPF
0.01 0.02 0.01 0.00 0.01 0.01 0.01 0.01 0.01 0.02 0.02 0.03 0.02 0.02 0.01 0.02 0.02 0.01 0.01 0.02 0.03 0.04 0.04 0.05 0.05 0.05 0.04 0.03 0.02 0.02 0.03 0.04 0.03 0.04 0.05 0.06 0.08 0.08 0.07 0.05 0.04 0.04 0.04 0.03
0.01 0.02 0.01 0.01 0.01 0.01 0.01 0.02 0.02 0.02 0.03 0.03 0.02 0.02 0.01 0.01 0.01 0.01 0.02 0.02 0.03 0.04 0.04 0.05 0.06 0.07 0.07 0.04 0.03 0.03 0.05 0.08 0.05 0.03 0.04 0.05 0.07 0.09 0.08 0.08 0.07 0.07 0.06 0.06
0.01 0.01 0.03 0.03 0.03 0.03 0.03 0.03 0.04 0.03 0.02 0.02 0.02 0.02 0.02 0.01 0.01 0.01 0.02 0.02 0.03 0.04 0.06 0.05 0.03 0.04 0.07 0.05 0.03 0.03 0.03 0.02 0.02 0.02 0.03 0.03 0.04 0.06 0.08 0.10 0.12 0.11 0.10 0.11
0.01 0.01 0.02 0.02 0.01 0.02 0.02 0.02 0.03 0.03 0.02 0.02 0.02 0.02 0.01 0.01 0.01 0.02 0.02 0.03 0.03 0.05 0.05 0.03 0.02 0.02 0.05 0.04 0.04 0.03 0.01 0.01 0.02 0.02 0.02 0.02 0.03 0.04 0.05 0.08 0.09 0.09 0.08 0.09
0.01 0.01 0.01 0.02 0.02 0.02 0.01 0.01 0.02 0.02 0.02 0.01 0.01 0.02 0.02 0.01 0.02 0.03 0.03 0.02 0.02 0.02 0.02 0.01 0.01 0.01 0.01 0.02 0.02 0.02 0.03 0.02 0.02 0.01 0.01 0.01 0.02 0.04 0.05 0.06 0.07 0.08 0.11 0.13
0.01 0.01 0.02 0.02 0.01 0.02 0.02 0.03 0.03 0.02 0.01 0.01 0.01 0.01 0.01 0.01 0.01 0.02 0.01 0.00 0.00 0.00 0.00 0.00 0.00 0.00 0.00 0.00 0.00 0.01 0.01 0.02 0.02 0.01 0.02 0.02 0.02 0.03 0.04 0.04 0.05 0.07 0.09 0.10
0.02 0.02 0.02 0.02 0.01 0.01 0.02 0.04 0.04 0.03 0.02 0.01 0.01 0.01 0.01 0.01 0.00 0.00 0.00 0.00 0.00 0.00 0.00 0.00 0.00 0.01 0.01 0.00 0.00 0.00 0.01 0.01 0.02 0.02 0.02 0.02 0.02 0.02 0.02 0.03 0.04 0.06 0.09 0.08
0.02 0.03 0.03 0.01 0.01 0.01 0.02 0.02 0.02 0.02 0.02 0.02 0.02 0.02 0.01 0.01 0.00 0.00 0.00 0.00 0.01 0.00 0.00 0.00 0.00 0.00 0.00 0.00 0.00 0.00 0.00 0.01 0.01 0.01 0.02 0.01 0.01 0.01 0.02 0.04 0.06 0.09 0.13 0.10
0.02 0.03 0.02 0.01 0.02 0.03 0.03 0.03 0.01 0.01 0.01 0.01 0.01 0.01 0.00 0.00 0.00 0.00 0.00 0.00 0.00 0.00 0.00 0.00 0.00 0.00 0.00 0.00 0.00 0.00 0.00 0.00 0.01 0.01 0.01 0.01 0.01 0.01 0.02 0.03 0.05 0.09 0.08 0.04
0.02 0.03 0.03 0.02 0.03 0.03 0.02 0.01 0.00 0.00 0.00 0.00 0.00 0.00 0.00 0.00 0.00 0.00 0.00 0.00 0.00 0.00 0.00 0.00 0.00 0.00 0.00 0.00 0.00 0.00 0.00 0.00 0.00 0.00 0.00 0.01 0.01 0.01 0.02 0.02 0.03 0.04 0.04 0.03
0.02 0.02 0.02 0.02 0.02 0.01 0.01 0.00 0.00 0.00 0.00 0.00 0.00 0.00 0.00 0.00 0.00 0.00 0.00 0.00 0.00 0.00 0.00 0.00 0.00 0.00 0.00 0.00 0.00 0.00 0.00 0.00 0.00 0.00 0.01 0.01 0.01 0.02 0.02 0.02 0.03 0.03 0.03 0.02
0.01 0.01 0.01 0.02 0.01 0.01 0.01 0.00 0.00 0.00 0.00 0.00 0.00 0.00 0.00 0.00 0.00 0.00 0.00 0.00 0.00 0.00 0.00 0.00 0.00 0.00 0.00 0.00 0.00 0.00 0.00 0.00 0.00 0.00 0.00 0.01 0.01 0.01 0.01 0.01 0.01 0.01 0.02 0.01
0.01 0.01 0.01 0.01 0.02 0.01 0.00 0.00 0.00 0.00 0.00 0.00 0.00 0.00 0.00 0.00 0.00 0.00 0.00 0.00 0.00 0.00 0.00 0.01 0.00 0.00 0.00 0.00 0.00 0.00 0.00 0.00 0.00 0.00 0.00 0.00 0.01 0.01 0.01 0.01 0.01 0.01 0.01 0.01
0.01 0.01 0.01 0.01 0.01 0.01 0.01 0.01 0.00 0.00 0.00 0.00 0.00 0.00 0.00 0.00 0.00 0.00 0.00 0.00 0.00 0.00 0.00 0.01 0.01 0.00 0.00 0.00 0.00 0.00 0.00 0.00 0.00 0.00 0.00 0.00 0.00 0.01 0.01 0.01 0.01 0.01 0.01 0.01
0.02 0.02 0.01 0.01 0.00 0.00 0.00 0.00 0.01 0.01 0.01 0.01 0.00 0.00 0.00 0.00 0.00 0.00 0.00 0.00 0.00 0.01 0.01 0.01 0.01 0.01 0.01 0.01 0.00 0.00 0.01 0.00 0.00 0.00 0.00 0.00 0.01 0.00 0.01 0.01 0.01 0.01 0.01 0.01
0.02 0.02 0.01 0.01 0.01 0.01 0.01 0.00 0.00 0.01 0.01 0.00 0.00 0.00 0.00 0.00 0.00 0.01 0.00 0.00 0.01 0.01 0.01 0.01 0.00 0.00 0.00 0.01 0.01 0.01 0.01 0.00 0.00 0.01 0.00 0.00 0.00 0.01 0.01 0.00 0.01 0.01 0.01 0.01
0.02 0.02 0.01 0.01 0.01 0.01 0.01 0.00 0.00 0.00 0.01 0.00 0.00 0.00 0.00 0.00 0.01 0.01 0.01 0.01 0.01 0.01 0.01 0.02 0.01 0.01 0.01 0.00 0.00 0.01 0.01 0.01 0.01 0.01 0.01 0.01 0.01 0.01 0.01 0.01 0.01 0.02 0.02 0.02
0.01 0.01 0.01 0.01 0.01 0.01 0.01 0.01 0.01 0.01 0.01 0.01 0.01 0.01 0.01 0.01 0.01 0.00 0.00 0.00 0.01 0.01 0.01 0.01 0.01 0.01 0.01 0.01 0.01 0.01 0.01 0.01 0.01 0.01 0.01 0.01 0.01 0.01 0.01 0.02 0.01 0.02 0.02 0.02
0.00 0.00 0.01 0.01 0.01 0.01 0.01 0.01 0.01 0.01 0.01 0.01 0.01 0.01 0.01 0.01 0.01 0.01 0.00 0.00 0.01 0.00 0.00 0.01 0.02 0.02 0.02 0.02 0.01 0.01 0.01 0.01 0.01 0.01 0.01 0.01 0.02 0.02 0.02 0.02 0.01 0.02 0.02 0.02
0.01 0.01 0.01 0.01 0.00 0.00 0.00 0.01 0.01 0.01 0.01 0.01 0.01 0.02 0.01 0.01 0.01 0.01 0.01 0.01 0.01 0.01 0.00 0.00 0.01 0.02 0.02 0.02 0.02 0.02 0.01 0.01 0.02 0.02 0.03 0.03 0.03 0.02 0.02 0.02 0.02 0.02 0.03 0.02
0.02 0.02 0.02 0.01 0.00 0.00 0.00 0.01 0.01 0.01 0.02 0.02 0.03 0.03 0.02 0.02 0.01 0.01 0.01 0.01 0.01 0.01 0.01 0.01 0.01 0.02 0.03 0.03 0.03 0.04 0.03 0.03 0.03 0.03 0.04 0.04 0.04 0.03 0.02 0.02 0.02 0.02 0.02 0.02
0.02 0.02 0.02 0.01 0.01 0.01 0.01 0.01 0.01 0.02 0.03 0.03 0.03 0.03 0.03 0.03 0.02 0.02 0.02 0.02 0.02 0.03 0.02 0.02 0.02 0.03 0.03 0.04 0.05 0.06 0.06 0.06 0.04 0.03 0.04 0.03 0.04 0.04 0.02 0.02 0.03 0.03 0.03 0.03
0.01 0.01 0.01 0.02 0.03 0.02 0.02 0.02 0.02 0.02 0.03 0.03 0.02 0.03 0.04 0.05 0.06 0.05 0.04 0.04 0.05 0.04 0.04 0.04 0.05 0.05 0.05 0.07 0.08 0.08 0.07 0.07 0.05 0.04 0.03 0.03 0.03 0.03 0.03 0.04 0.05 0.05 0.04 0.03
0.01 0.02 0.02 0.02 0.03 0.02 0.02 0.02 0.03 0.03 0.03 0.03 0.03 0.02 0.03 0.04 0.06 0.07 0.05 0.04 0.05 0.05 0.05 0.05 0.04 0.03 0.04 0.05 0.05 0.05 0.05 0.06 0.06 0.05 0.05 0.06 0.06 0.04 0.04 0.04 0.06 0.06 0.05 0.03
0.03 0.02 0.02 0.03 0.03 0.03 0.03 0.03 0.02 0.02 0.02 0.02 0.02 0.02 0.02 0.02 0.02 0.03 0.03 0.02 0.02 0.02 0.02 0.02 0.02 0.01 0.02 0.03 0.03 0.03 0.04 0.05 0.07 0.08 0.06 0.07 0.09 0.07 0.06 0.05 0.05 0.05 0.03 0.02
0.05 0.05 0.05 0.04 0.05 0.04 0.04 0.03 0.03 0.02 0.02 0.03 0.04 0.04 0.04 0.03 0.03 0.02 0.02 0.02 0.01 0.01 0.01 0.01 0.01 0.01 0.02 0.03 0.04 0.04 0.04 0.04 0.05 0.08 0.07 0.08 0.10 0.06 0.05 0.05 0.05 0.05 0.03 0.02
0.05 0.06 0.06 0.06 0.05 0.05 0.04 0.04 0.03 0.03 0.03 0.05 0.06 0.05 0.04 0.04 0.03 0.02 0.02 0.01 0.01 0.02 0.02 0.01 0.01 0.01 0.02 0.04 0.04 0.04 0.04 0.03 0.03 0.05 0.05 0.05 0.06 0.05 0.05 0.05 0.05 0.04 0.04 0.03
MSLP
1013.94 1014.32 1014.57 1014.70 1014.74 1014.70 1014.61 1014.47 1014.30 1014.11 1013.91 1013.73 1013.57 1013.45 1013.37 1013.34 1013.36 1013.42 1013.51 1013.63 1013.76 1013.89 1014.04 1014.19 1014.35 1014.53 1014.72 1014.94 1015.17 1015.40 1015.62 1015.84 1016.02 1016.18 1016.32 1016.43 1016.54 1016.64 1016.76 1016.88 1017.03 1017.18 1017.34 1017.49
1014.27 1014.56 1014.66 1014.59 1014.41 1014.13 1013.82 1013.51 1013.23 1013.01 1012.85 1012.77 1012.75 1012.79 1012.87 1012.98 1013.08 1013.19 1013.28 1013.36 1013.43 1013.51 1013.61 1013.73 1013.89 1014.09 1014.33 1014.59 1014.86 1015.12 1015.37 1015.59 1015.77 1015.93 1016.06 1016.17 1016.29 1016.42 1016.56 1016.73 1016.91 1017.09 1017.27 1017.44
1014.51 1014.71 1014.68 1014.46 1014.09 1013.63 1013.15 1012.71 1012.34 1012.08 1011.95 1011.94 1012.04 1012.20 1012.40 1012.60 1012.78 1012.92 1013.01 1013.07 1013.11 1013.15 1013.21 1013.32 1013.47 1013.69 1013.95 1014.24 1014.53 1014.82 1015.07 1015.29 1015.47 1015.62 1015.75 1015.88 1016.02 1016.17 1016.36 1016.56 1016.77 1016.99 1017.18 1017.35
1014.59 1014.70 1014.56 1014.22 1013.73 1013.14 1012.55 1012.01 1011.59 1011.31 1011.19 1011.23 1011.40 1011.65 1011.93 1012.21 1012.45 1012.63 1012.74 1012.80 1012.82 1012.84 1012.89 1012.99 1013.15 1013.37 1013.64 1013.94 1014.25 1014.53 1014.78 1015.00 1015.17 1015.31 1015.44 1015.58 1015.74 1015.92 1016.13 1016.36 1016.60 1016.83 1017.04 1017.21
1014.41 1014.43 1014.21 1013.79 1013.21 1012.56 1011.91 1011.33 1010.87 1010.59 1010.49 1010.56 1010.77 1011.08 1011.43 1011.77 1012.07 1012.29 1012.44 1012.52 1012.56 1012.60 1012.66 1012.77 1012.93 1013.16 1013.43 1013.72 1014.02 1014.29 1014.53 1014.73 1014.88 1015.02 1015.14 1015.28 1015.45 1015.65 1015.87 1016.12 1016.37 1016.60 1016.81 1016.97
1013.91 1013.83 1013.55 1013.08 1012.48 1011.80 1011.14 1010.56 1010.11 1009.84 1009.75 1009.85 1010.11 1010.46 1010.85 1011.25 1011.59 1011.87 1012.07 1012.20 1012.29 1012.36 1012.46 1012.59 1012.77 1013.00 1013.27 1013.55 1013.83 1014.09 1014.30 1014.48 1014.62 1014.73 1014.85 1014.99 1015.15 1015.34 1015.57 1015.81 1016.05 1016.27 1016.46 1016.61
1013.08 1012.91 1012.57 1012.08 1011.49 1010.84 1010.21 1009.66 1009.25 1009.01 1008.95 1009.08 1009.36 1009.74 1010.17 1010.61 1011.01 1011.34 1011.60 1011.79 1011.94 1012.08 1012.21 1012.38 1012.59 1012.83 1013.09 1013.37 1013.63 1013.87 1014.06 1014.21 1014.34 1014.44 1014.55 1014.67 1014.81 1014.99 1015.19 1015.41 1015.63 1015.82 1015.99 1016.13
1011.97 1011.72 1011.34 1010.86 1010.30 1009.71 1009.14 1008.66 1008.30 1008.11 1008.09 1008.24 1008.54 1008.94 1009.40 1009.86 1010.30 1010.68 1011.01 1011.27 1011.48 1011.67 1011.86 1012.07 1012.30 1012.56 1012.83 1013.10 1013.36 1013.58 1013.76 1013.90 1014.02 1014.11 1014.20 1014.30 1014.43 1014.58 1014.74 1014.92 1015.10 1015.26 1015.40 1015.52
1010.70 1010.38 1009.99 1009.53 1009.02 1008.51 1008.03 1007.63 1007.35 1007.21 1007.23 1007.40 1007.71 1008.11 1008.57 1009.05 1009.51 1009.93 1010.30 1010.61 1010.87 1011.12 1011.36 1011.60 1011.86 1012.14 1012.42 1012.70 1012.95 1013.18 1013.36 1013.51 1013.62 1013.71 1013.80 1013.88 1013.98 1014.10 1014.22 1014.36 1014.49 1014.62 1014.73 1014.84
1009.40 1009.05 1008.65 1008.23 1007.80 1007.38 1007.00 1006.69 1006.49 1006.41 1006.46 1006.64 1006.95 1007.34 1007.79 1008.25 1008.71 1009.13 1009.51 1009.85 1010.15 1010.43 1010.70 1010.97 1011.25 1011.54 1011.84 1012.13 1012.40 1012.64 1012.84 1013.01 1013.14 1013.23 1013.32 1013.39 1013.47 1013.55 1013.64 1013.73 1013.82 1013.91 1014.00 1014.10
1008.22 1007.85 1007.48 1007.12 1006.77 1006.45 1006.16 1005.95 1005.82 1005.79 1005.87 1006.06 1006.34 1006.70 1007.11 1007.54 1007.96 1008.36 1008.73 1009.06 1009.37 1009.65 1009.93 1010.21 1010.50 1010.80 1011.11 1011.42 1011.71 1011.97 1012.20 1012.39 1012.54 1012.66 1012.75 1012.83 1012.89 1012.94 1013.00 1013.05 1013.11 1013.17 1013.25 1013.35
1007.24 1006.89 1006.57 1006.27 1006.01 1005.78 1005.59 1005.46 1005.39 1005.41 1005.51 1005.69 1005.94 1006.26 1006.61 1006.98 1007.34 1007.69 1008.02 1008.31 1008.59 1008.85 1009.11 1009.38 1009.67 1009.97 1010.28 1010.60 1010.91 1011.19 1011.45 1011.67 1011.85 1011.99 1012.10 1012.17 1012.22 1012.26 1012.29 1012.32 1012.36 1012.41 1012.48 1012.59
1006.48 1006.17 1005.91 1005.69 1005.52 1005.37 1005.27 1005.21 1005.20 1005.25 1005.35 1005.52 1005.74 1006.00 1006.29 1006.58 1006.88 1007.16 1007.42 1007.66 1007.88 1008.10 1008.32 1008.56 1008.82 1009.11 1009.41 1009.72 1010.04 1010.34 1010.61 1010.86 1011.06 1011.22 1011.34 1011.42 1011.47 1011.49 1011.51 1011.53 1011.56 1011.61 1011.69 1011.80
1005.91 1005.66 1005.47 1005.33 1005.22 1005.16 1005.12 1005.12 1005.16 1005.23 1005.34 1005.48 1005.67 1005.87 1006.09 1006.32 1006.54 1006.74 1006.93 1007.10 1007.26 1007.42 1007.59 1007.78 1008.00 1008.25 1008.52 1008.82 1009.13 1009.42 1009.71 1009.96 1010.17 1010.34 1010.46 1010.55 1010.60 1010.62 1010.64 1010.66 1010.69 1010.74 1010.83 1010.96
1005.48 1005.29 1005.16 1005.08 1005.04 1005.03 1005.05 1005.09 1005.15 1005.24 1005.35 1005.48 1005.63 1005.79 1005.95 1006.11 1006.26 1006.40 1006.51 1006.61 1006.71 1006.80 1006.91 1007.05 1007.21 1007.41 1007.65 1007.91 1008.19 1008.47 1008.73 1008.98 1009.19 1009.35 1009.48 1009.56 1009.61 1009.64 1009.65 1009.68 1009.72 1009.78 1009.88 1010.03
1005.12 1004.98 1004.90 1004.86 1004.86 1004.89 1004.94 1005.00 1005.08 1005.17 1005.28 1005.39 1005.51 1005.63 1005.75 1005.86 1005.95 1006.03 1006.08 1006.12 1006.16 1006.19 1006.25 1006.32 1006.43 1006.58 1006.76 1006.98 1007.22 1007.46 1007.70 1007.92 1008.11 1008.27 1008.38 1008.46 1008.50 1008.53 1008.55 1008.58 1008.63 1008.70 1008.82 1008.97
1004.81 1004.70 1004.63 1004.61 1004.63 1004.67 1004.72 1004.79 1004.87 1004.96 1005.05 1005.14 1005.23 1005.32 1005.40 1005.47 1005.52 1005.55 1005.56 1005.55 1005.54 1005.52 1005.53 1005.55 1005.61 1005.71 1005.84 1006.01 1006.21 1006.41 1006.62 1006.81 1006.97 1007.10 1007.20 1007.27 1007.30 1007.32 1007.34 1007.37 1007.42 1007.50 1007.62 1007.78
1004.54 1004.42 1004.35 1004.32 1004.32 1004.35 1004.39 1004.44 1004.50 1004.56 1004.62 1004.69 1004.75 1004.80 1004.85 1004.88 1004.90 1004.89 1004.86 1004.82 1004.77 1004.73 1004.70 1004.69 1004.71 1004.77 1004.87 1005.00 1005.16 1005.32 1005.50 1005.66 1005.79 1005.90 1005.98 1006.02 1006.05 1006.05 1006.06 1006.08 1006.13 1006.20 1006.31 1006.47
1004.32 1004.18 1004.07 1004.01 1003.97 1003.96 1003.96 1003.97 1003.98 1004.00 1004.02 1004.04 1004.06 1004.07 1004.08 1004.07 1004.05 1004.02 1003.97 1003.90 1003.84 1003.78 1003.73 1003.70 1003.71 1003.75 1003.82 1003.93 1004.07 1004.21 1004.36 1004.49 1004.61 1004.69 1004.74 1004.77 1004.77 1004.75 1004.74 1004.74 1004.76 1004.82 1004.91 1005.05
1004.15 1003.96 1003.81 1003.70 1003.61 1003.54 1003.48 1003.42 1003.38 1003.33 1003.29 1003.25 1003.20 1003.17 1003.12 1003.07 1003.02 1002.95 1002.88 1002.81 1002.73 1002.67 1002.62 1002.60 1002.61 1002.65 1002.73 1002.83 1002.96 1003.09 1003.23 1003.34 1003.44 1003.50 1003.53 1003.52 1003.49 1003.45 1003.40 1003.37 1003.36 1003.39 1003.45 1003.57
1004.00 1003.75 1003.55 1003.37 1003.22 1003.09 1002.96 1002.84 1002.72 1002.60 1002.48 1002.36 1002.25 1002.15 1002.05 1001.95 1001.85 1001.76 1001.67 1001.59 1001.52 1001.47 1001.43 1001.43 1001.45 1001.51 1001.60 1001.72 1001.84 1001.98 1002.10 1002.21 1002.28 1002.32 1002.32 1002.28 1002.22 1002.13 1002.04 1001.97 1001.92 1001.91 1001.95 1002.06
1003.78 1003.48 1003.23 1003.00 1002.79 1002.59 1002.40 1002.21 1002.01 1001.82 1001.62 1001.43 1001.25 1001.08 1000.92 1000.77 1000.64 1000.52 1000.42 1000.33 1000.27 1000.23 1000.22 1000.24 1000.28 1000.36 1000.47 1000.59 1000.72 1000.85 1000.97 1001.06 1001.11 1001.12 1001.08 1001.00 1000.90 1000.77 1000.64 1000.52 1000.44 1000.40 1000.43 1000.52
1003.38 1003.05 1002.75 1002.48 1002.23 1001.99 1001.74 1001.50 1001.24 1000.99 1000.73 1000.48 1000.23 1000.01 999.80 999.61 999.45 999.31 999.20 999.12 999.06 999.03 999.04 999.07 999.14 999.23 999.34 999.46 999.58 999.69 999.78 999.84 999.86 999.83 999.75 999.63 999.48 999.31 999.15 999.00 998.90 998.85 998.88 999.00
1002.70 1002.33 1002.02 1001.73 1001.45 1001.19 1000.92 1000.64 1000.35 1000.06 999.77 999.48 999.21 998.95 998.72 998.51 998.34 998.19 998.08 998.00 997.95 997.93 997.94 997.97 998.03 998.11 998.20 998.30 998.38 998.45 998.50 998.50 998.47 998.39 998.26 998.10 997.92 997.72 997.54 997.38 997.29 997.26 997.33 997.50
1001.65 1001.28 1000.95 1000.66 1000.39 1000.12 999.86 999.58 999.30 999.01 998.72 998.44 998.17 997.92 997.70 997.50 997.34 997.20 997.10 997.02 996.97 996.95 996.94 996.96 996.98 997.01 997.05 997.08 997.10 997.10 997.07 997.00 996.90 996.76 996.59 996.40 996.19 995.99 995.82 995.69 995.64 995.67 995.82 996.08
1000.25 999.87 999.55 999.27 999.02 998.78 998.55 998.31 998.07 997.82 997.58 997.34 997.12 996.92 996.74 996.59 996.46 996.35 996.27 996.20 996.15 996.10 996.06 996.02 995.98 995.93 995.88 995.81 995.72 995.62 995.49 995.34 995.17 994.97 994.76 994.55 994.35 994.18 994.06 994.00 994.03 994.17 994.44 994.84
998.62 998.23 997.91 997.65 997.43 997.23 997.04 996.87 996.69 996.53 996.37 996.22 996.08 995.97 995.86 995.78 995.71 995.65 995.59 995.53 995.46 995.38 995.28 995.16 995.03 994.87 994.69 994.50 994.29 994.07 993.84 993.60 993.35 993.12 992.89 992.70 992.53 992.43 992.40 992.45 992.61 992.89 993.31 993.86
Thickness
5718 5725 5727 5726 5729 5731 5723 5713 5703 5703 5702 5705 5709 5711 5710 5709 5706 5704 5701 5699 5697 5694 5691 5688 5686 5684 5682 5680 5678 5677 5674 5670 5668 5667 5666 5665 5663 5662 5661 5660 5659 5658 5658 5657
5711 5721 5721 5717 5722 5725 5723 5718 5710 5704 5698 5708 5708 5708 5704 5701 5699 5695 5693 5691 5689 5687 5684 5680 5678 5677 5674 5673 5671 5669 5666 5663 5661 5659 5658 5657 5656 5654 5653 5652 5651 5650 5649 5649
5689 5706 5706 5694 5707 5713 5712 5714 5709 5696 5697 5702 5698 5697 5695 5694 5693 5690 5686 5684 5682 5679 5677 5674 5671 5671 5668 5667 5664 5661 5658 5656 5654 5653 5650 5649 5648 5646 5645 5644 5643 5642 5641 5641
5679 5686 5672 5687 5711 5714 5707 5703 5706 5702 5699 5697 5694 5691 5691 5690 5686 5683 5681 5677 5674 5672 5669 5667 5666 5664 5663 5660 5657 5654 5651 5649 5647 5645 5643 5642 5640 5639 5637 5636 5635 5635 5634 5634
5666 5665 5670 5689 5704 5706 5696 5686 5696 5694 5691 5688 5687 5683 5678 5682 5682 5678 5675 5671 5668 5666 5664 5661 5659 5657 5655 5652 5649 5646 5644 5642 5641 5639 5636 5634 5632 5631 5631 5629 5628 5627 5627 5627
5663 5659 5655 5675 5699 5708 5695 5671 5688 5688 5683 5681 5678 5663 5663 5673 5673 5671 5668 5665 5662 5660 5658 5655 5652 5650 5646 5643 5640 5638 5637 5636 5634 5632 5630 5627 5626 5625 5624 5622 5621 5621 5620 5620
5658 5652 5660 5682 5697 5699 5671 5666 5682 5683 5680 5676 5670 5666 5666 5667 5665 5663 5661 5659 5656 5653 5650 5648 5646 5643 5638 5635 5633 5632 5631 5629 5627 5625 5623 5621 5619 5617 5616 5615 5614 5613 5613 5613
5649 5644 5652 5682 5686 5675 5671 5678 5678 5677 5675 5671 5668 5665 5662 5660 5657 5654 5652 5651 5648 5644 5642 5640 5638 5635 5631 5628 5628 5626 5624 5622 5620 5618 5617 5616 5611 5609 5608 5607 5606 5605 5605 5605
5653 5653 5667 5677 5677 5678 5677 5672 5672 5669 5668 5666 5661 5656 5654 5651 5649 5647 5645 5642 5640 5637 5634 5632 5630 5627 5623 5622 5621 5619 5617 5614 5612 5611 5609 5608 5605 5603 5601 5599 5598 5598 5598 5598
5650 5656 5664 5669 5672 5673 5673 5670 5668 5667 5664 5660 5655 5651 5647 5644 5641 5639 5637 5635 5632 5629 5626 5624 5623 5621 5619 5617 5615 5612 5610 5608 5606 5604 5603 5601 5599 5597 5595 5594 5593 5592 5592 5592
5645 5653 5657 5660 5662 5664 5665 5664 5662 5660 5658 5654 5649 5644 5641 5637 5635 5633 5631 5629 5626 5623 5620 5618 5616 5615 5614 5612 5609 5605 5603 5602 5600 5599 5597 5596 5594 5592 5591 5590 5589 5588 5587 5586
5639 5647 5645 5648 5656 5658 5656 5655 5654 5651 5648 5647 5644 5639 5636 5631 5629 5627 5624 5622 5619 5617 5614 5612 5610 5608 5607 5606 5603 5599 5597 5595 5594 5592 5591 5590 5588 5588 5588 5587 5586 5585 5584 5582
5646 5649 5647 5649 5650 5651 5649 5648 5647 5645 5642 5638 5636 5634 5630 5625 5623 5620 5618 5616 5613 5611 5609 5606 5604 5602 5601 5600 5597 5594 5591 5589 5587 5586 5585 5583 5582 5581 5580 5580 5580 5580 5579 5578
5646 5644 5640 5641 5641 5643 5643 5642 5640 5637 5634 5632 5629 5626 5623 5619 5616 5614 5612 5610 5609 5606 5603 5600 5598 5596 5595 5593 5590 5587 5585 5584 5582 5580 5579 5578 5576 5575 5573 5572 5572 5573 5573 5573
5638 5637 5634 5635 5635 5634 5634 5632 5628 5625 5624 5622 5620 5618 5615 5612 5609 5607 5606 5605 5602 5599 5596 5594 5592 5590 5589 5586 5583 5581 5578 5576 5575 5574 5573 5572 5571 5569 5568 5567 5566 5566 5565 5566
5629 5630 5629 5628 5626 5626 5625 5623 5619 5616 5616 5614 5612 5610 5608 5606 5603 5601 5600 5598 5594 5591 5589 5587 5586 5585 5583 5580 5577 5574 5572 5572 5570 5568 5567 5566 5564 5563 5562 5561 5560 5559 5559 5559
5619 5618 5618 5617 5618 5617 5617 5616 5613 5611 5609 5607 5606 5604 5602 5599 5596 5594 5593 5591 5589 5586 5584 5582 5580 5580 5577 5575 5572 5569 5567 5565 5564 5562 5561 5560 5559 5557 5556 5556 5555 5555 5554 5554
5617 5616 5615 5614 5612 5611 5610 5610 5608 5606 5604 5603 5601 5598 5596 5592 5589 5588 5587 5585 5582 5580 5579 5577 5575 5574 5572 5570 5567 5564 5562 5560 5558 5556 5556 5555 5553 5553 5552 5550 5550 5549 5549 5548
5612 5611 5611 5610 5609 5606 5604 5602 5601 5600 5599 5598 5595 5592 5590 5588 5586 5583 5581 5578 5575 5573 5573 5572 5570 5568 5566 5565 5562 5559 5557 5555 5553 5552 5551 5551 5549 5548 5547 5546 5545 5544 5543 5542
5604 5604 5604 5603 5603 5600 5597 5596 5595 5594 5593 5592 5589 5586 5583 5582 5580 5578 5575 5572 5571 5570 5569 5568 5565 5563 5561 5559 5557 5554 5552 5550 5549 5548 5547 5546 5544 5543 5543 5542 5541 5540 5539 5537
5595 5595 5595 5595 5594 5593 5591 5590 5588 5587 5586 5585 5583 5580 5578 5576 5575 5572 5569 5566 5567 5567 5565 5563 5561 5559 5557 5554 5552 5549 5547 5545 5544 5543 5542 5542 5541 5540 5539 5538 5537 5536 5534 5532
5588 5587 5587 5587 5585 5583 5583 5583 5582 5581 5580 5579 5577 5576 5573 5570 5568 5566 5564 5562 5563 5562 5559 5557 5556 5555 5553 5550 5547 5546 5544 5541 5540 5539 5538 5538 5537 5536 5535 5534 5532 5531 5530 5528
5581 5581 5580 5579 5577 5575 5575 5575 5575 5574 5573 5572 5571 5569 5567 5564 5562 5559 5557 5558 5557 5556 5554 5553 5552 5550 5548 5545 5543 5541 5539 5538 5537 5536 5536 5535 5534 5532 5531 5530 5529 5528 5526 5525
5574 5573 5572 5572 5571 5568 5567 5567 5568 5567 5567 5566 5566 5564 5562 5559 5557 5557 5556 5555 5553 5551 5550 5549 5547 5545 5542 5540 5538 5536 5535 5534 5534 5534 5533 5532 5531 5529 5528 5527 5526 5525 5524 5523
5568 5567 5566 5564 5563 5561 5561 5561 5561 5561 5560 5559 5560 5560 5559 5557 5555 5554 5552 5551 5549 5547 5546 5545 5543 5540 5538 5536 5535 5533 5532 5532 5531 5531 5530 5529 5528 5527 5526 5524 5523 5522 5521 5521
5561 5560 5559 5559 5558 5556 5555 5555 5554 5554 5554 5553 5554 5554 5554 5553 5552 5550 5548 5547 5545 5543 5542 5540 5538 5536 5535 5533 5532 5531 5530 5530 5529 5528 5527 5527 5526 5524 5524 5523 5522 5521 5520 5519
5555 5554 5553 5553 5554 5554 5553 5551 5550 5550 5550 5549 5548 5549 5549 5548 5547 5546 5544 5542 5540 5539 5537 5536 5534 5533 5532 5531 5529 5528 5528 5527 5526 5525 5525 5524 5522 5522 5521 5521 5520 5519 5518 5517